Tracking 30298 objects as of 27-Apr-2025
HD Live streaming from Space Station
objects crossing your sky now

GALILEO 32 (137)

Track GALILEO 32 (137) now!
GALILEO 32 (137) is classified as:


NORAD ID: 61182
Int'l Code: 2024-167A
Perigee: 23,218.9 km
Apogee: 23,239.8 km
Inclination: 55.3 °
Period: 844.7 minutes
Semi major axis: 29600 km
RCS: Unknown
Launch date: September 17, 2024
Source: European Space Agency (ESA)
Launch site: AIR FORCE EASTERN TEST RANGE (AFETR)
Your satellite tracking list
Your tracking list is empty




NASA's NSSDC Master Catalog

Two Line Element Set (TLE):
1 61182U 24167A   25115.53850105 -.00000012  00000-0  00000-0 0  9993
2 61182  55.3229 232.7717 0003536 202.7628 103.9442  1.70474081  3759
Source of the keplerian elements: AFSPC